Time,TemperatureF,DewpointF,PressureIn,WindDirection,WindDirectionDegrees,WindSpeedMPH,WindSpeedGustMPH,Humidity,HourlyPrecipIn,Conditions,Clouds,dailyrainin,SolarRadiationWatts/m^2,SoftwareType,DateUTC
2013-12-30 00:00:00,53.1,50.2,30.01,WNW,294,0.0,7.0,90,0.00,,,0.53,0.0,meteohub,2013-12-30 05:00:00,
2013-12-30 00:01:00,53.1,50.2,30.01,WNW,294,0.0,7.0,90,0.00,,,0.53,0.0,meteohub,2013-12-30 05:01:00,
2013-12-30 00:02:00,53.1,50.2,30.01,WNW,294,0.0,7.0,90,0.00,,,0.53,0.0,meteohub,2013-12-30 05:02:00,
2013-12-30 00:07:00,53.1,50.2,30.01,WNW,302,3.0,4.0,90,0.00,,,0.00,0.0,meteohub,2013-12-30 05:07:00,
2013-12-30 00:12:00,53.1,50.2,30.01,NW,321,0.0,4.0,90,0.00,,,0.00,0.0,meteohub,2013-12-30 05:12:00,
2013-12-30 00:17:00,53.1,49.8,30.01,WNW,291,1.0,6.0,89,0.00,,,0.00,0.0,meteohub,2013-12-30 05:17:00,
2013-12-30 00:22:00,53.1,49.8,30.01,WNW,287,0.0,7.0,89,0.00,,,0.00,0.0,meteohub,2013-12-30 05:22:00,
2013-12-30 00:27:00,52.9,49.6,30.00,WNW,287,0.0,7.0,89,0.00,,,0.00,0.0,meteohub,2013-12-30 05:27:00,
2013-12-30 00:32:00,52.5,49.5,30.00,WNW,290,2.0,7.0,89,0.00,,,0.00,0.0,meteohub,2013-12-30 05:32:00,
2013-12-30 00:37:00,52.3,49.5,30.01,WNW,291,0.0,3.0,90,0.00,,,0.00,0.0,meteohub,2013-12-30 05:37:00,
2013-12-30 00:42:00,52.2,49.3,30.01,WNW,287,0.0,3.0,90,0.00,,,0.00,0.0,meteohub,2013-12-30 05:42:00,
2013-12-30 00:47:00,52.0,49.1,30.01,WNW,283,1.0,5.0,90,0.00,,,0.00,0.0,meteohub,2013-12-30 05:47:00,
2013-12-30 00:52:00,51.6,48.7,30.01,WNW,288,0.0,5.0,90,0.00,,,0.00,0.0,meteohub,2013-12-30 05:52:00,
2013-12-30 00:57:00,51.4,48.6,30.01,WNW,287,0.0,5.0,90,0.00,,,0.00,0.0,meteohub,2013-12-30 05:57:00,
2013-12-30 01:02:00,51.4,48.6,30.01,WNW,287,0.0,5.0,90,0.00,,,0.00,0.0,meteohub,2013-12-30 06:02:00,
2013-12-30 01:07:00,51.1,48.6,30.01,WNW,288,0.0,4.0,91,0.00,,,0.00,0.0,meteohub,2013-12-30 06:07:00,
2013-12-30 01:12:00,50.9,48.4,30.01,WNW,295,0.0,3.0,91,0.00,,,0.00,0.0,meteohub,2013-12-30 06:12:00,
2013-12-30 01:17:00,50.7,48.2,30.02,WNW,295,0.0,3.0,91,0.00,,,0.00,0.0,meteohub,2013-12-30 06:17:00,
2013-12-30 01:22:00,50.5,48.0,30.02,West,275,0.0,3.0,91,0.00,,,0.00,0.0,meteohub,2013-12-30 06:22:00,
2013-12-30 01:27:00,50.4,47.8,30.02,West,275,0.0,3.0,91,0.00,,,0.00,0.0,meteohub,2013-12-30 06:27:00,
2013-12-30 01:32:00,50.4,47.8,30.01,WNW,300,0.0,3.0,91,0.00,,,0.00,0.0,meteohub,2013-12-30 06:32:00,
2013-12-30 01:37:00,50.4,47.8,30.01,WNW,301,0.0,4.0,91,0.00,,,0.00,0.0,meteohub,2013-12-30 06:37:00,
2013-12-30 01:42:00,50.2,47.7,30.01,WNW,291,0.0,4.0,91,0.00,,,0.00,0.0,meteohub,2013-12-30 06:42:00,
2013-12-30 01:47:00,50.2,48.0,29.99,WNW,287,0.0,-999.0,92,-99.99,,,0.00,0,weatherlink.com 1.10,2013-12-30 06:47:00,
2013-12-30 01:52:00,50.2,48.0,30.01,WNW,288,0.0,4.0,92,0.00,,,0.00,0.0,meteohub,2013-12-30 06:52:00,
2013-12-30 01:57:00,49.8,47.3,30.01,WNW,288,0.0,4.0,91,0.00,,,0.00,0.0,meteohub,2013-12-30 06:57:00,
2013-12-30 02:02:00,49.8,47.3,30.01,WNW,288,0.0,4.0,91,0.00,,,0.00,0.0,meteohub,2013-12-30 07:02:00,
2013-12-30 02:07:00,49.6,47.1,30.01,WNW,303,0.0,3.0,91,0.00,,,0.00,0.0,meteohub,2013-12-30 07:07:00,
2013-12-30 02:12:00,49.6,47.1,30.02,WNW,292,0.0,4.0,91,0.00,,,0.00,0.0,meteohub,2013-12-30 07:12:00,
2013-12-30 02:17:00,49.6,47.1,30.01,WNW,292,0.0,4.0,91,0.00,,,0.00,0.0,meteohub,2013-12-30 07:17:00,
2013-12-30 02:22:00,49.5,46.9,30.02,WNW,292,0.0,4.0,91,0.00,,,0.00,0.0,meteohub,2013-12-30 07:22:00,
2013-12-30 02:27:00,49.3,46.8,30.01,WNW,292,0.0,2.0,91,0.00,,,0.00,0.0,meteohub,2013-12-30 07:27:00,
2013-12-30 02:32:00,49.1,46.6,30.01,WNW,292,0.0,1.0,91,0.00,,,0.00,0.0,meteohub,2013-12-30 07:32:00,
2013-12-30 02:37:00,48.9,46.4,30.02,WNW,292,0.0,1.0,91,0.00,,,0.00,0.0,meteohub,2013-12-30 07:37:00,
2013-12-30 02:42:00,48.7,46.6,30.02,WNW,292,0.0,0.0,92,0.00,,,0.00,0.0,meteohub,2013-12-30 07:42:00,
2013-12-30 02:47:00,48.5,46.0,30.00,WNW,292,0.0,-999.0,92,-99.99,,,0.00,0,weatherlink.com 1.10,2013-12-30 07:47:00,
2013-12-30 02:52:00,48.4,46.2,30.02,WNW,292,0.0,0.0,92,0.00,,,0.00,0.0,meteohub,2013-12-30 07:52:00,
2013-12-30 02:57:00,48.0,45.9,30.02,WNW,292,0.0,0.0,92,0.00,,,0.00,0.0,meteohub,2013-12-30 07:57:00,
2013-12-30 03:02:00,47.8,45.9,30.02,WNW,292,0.0,0.0,93,0.00,,,0.00,0.0,meteohub,2013-12-30 08:02:00,
2013-12-30 03:07:00,47.8,45.9,30.02,WNW,292,0.0,1.0,93,0.00,,,0.00,0.0,meteohub,2013-12-30 08:07:00,
2013-12-30 03:12:00,47.8,45.9,30.02,WNW,292,0.0,1.0,93,0.00,,,0.00,0.0,meteohub,2013-12-30 08:12:00,
2013-12-30 03:17:00,47.8,45.9,30.02,WNW,292,0.0,1.0,93,0.00,,,0.00,0.0,meteohub,2013-12-30 08:17:00,
2013-12-30 03:22:00,47.7,45.7,30.02,WNW,292,0.0,1.0,93,0.00,,,0.00,0.0,meteohub,2013-12-30 08:22:00,
2013-12-30 03:27:00,47.5,45.5,30.02,SSW,199,0.0,1.0,93,0.00,,,0.00,0.0,meteohub,2013-12-30 08:27:00,
2013-12-30 03:32:00,47.3,45.7,30.03,SSW,200,0.0,2.0,94,0.00,,,0.00,0.0,meteohub,2013-12-30 08:32:00,
2013-12-30 03:37:00,47.1,45.5,30.03,SSW,199,0.0,2.0,94,0.00,,,0.00,0.0,meteohub,2013-12-30 08:37:00,
2013-12-30 03:42:00,47.1,45.5,30.03,SSW,200,0.0,0.0,94,0.00,,,0.00,0.0,meteohub,2013-12-30 08:42:00,
2013-12-30 03:47:00,46.9,45.3,30.03,SSW,199,0.0,0.0,94,0.00,,,0.00,0.0,meteohub,2013-12-30 08:47:00,
2013-12-30 03:52:00,46.8,45.1,30.03,SSW,200,0.0,0.0,94,0.00,,,0.00,0.0,meteohub,2013-12-30 08:52:00,
2013-12-30 03:57:00,46.6,45.0,30.03,SSW,200,0.0,0.0,94,0.00,,,0.00,0.0,meteohub,2013-12-30 08:57:00,
2013-12-30 04:02:00,46.4,44.8,30.03,SSW,200,0.0,0.0,94,0.00,,,0.00,0.0,meteohub,2013-12-30 09:02:00,
2013-12-30 04:07:00,46.2,44.6,30.03,SSW,199,0.0,0.0,94,0.00,,,0.00,0.0,meteohub,2013-12-30 09:07:00,
2013-12-30 04:12:00,46.0,44.4,30.03,SSW,199,0.0,0.0,94,0.00,,,0.00,0.0,meteohub,2013-12-30 09:12:00,
2013-12-30 04:17:00,46.2,44.6,30.03,SSW,200,0.0,0.0,94,0.00,,,0.00,0.0,meteohub,2013-12-30 09:17:00,
2013-12-30 04:22:00,46.2,44.8,30.03,SSW,200,0.0,2.0,95,0.00,,,0.00,0.0,meteohub,2013-12-30 09:22:00,
2013-12-30 04:27:00,46.4,45.0,30.03,SSW,200,2.0,2.0,95,0.00,,,0.00,0.0,meteohub,2013-12-30 09:27:00,
2013-12-30 04:32:00,46.5,45.0,30.01,SSW,200,0.0,-999.0,95,-99.99,,,0.00,0,weatherlink.com 1.10,2013-12-30 09:32:00,
2013-12-30 04:37:00,46.4,45.0,30.03,West,279,2.0,2.0,95,0.00,,,0.00,0.0,meteohub,2013-12-30 09:37:00,
2013-12-30 04:42:00,46.4,45.0,30.03,WNW,288,0.0,3.0,95,0.00,,,0.00,0.0,meteohub,2013-12-30 09:42:00,
2013-12-30 04:47:00,46.2,44.8,30.03,WNW,288,0.0,3.0,95,0.00,,,0.00,0.0,meteohub,2013-12-30 09:47:00,
2013-12-30 04:52:00,46.2,44.8,30.04,WNW,288,0.0,3.0,95,0.00,,,0.00,0.0,meteohub,2013-12-30 09:52:00,
2013-12-30 04:57:00,46.2,44.8,30.04,WNW,288,0.0,2.0,95,0.00,,,0.00,0.0,meteohub,2013-12-30 09:57:00,
2013-12-30 05:02:00,46.1,45.0,30.02,WNW,288,0.0,-999.0,95,-99.99,,,0.00,0,weatherlink.com 1.10,2013-12-30 10:02:00,
2013-12-30 05:07:00,46.0,44.6,30.04,WSW,241,0.0,3.0,95,0.00,,,0.00,0.0,meteohub,2013-12-30 10:07:00,
2013-12-30 05:12:00,45.9,44.4,30.04,WSW,241,0.0,3.0,95,0.00,,,0.00,0.0,meteohub,2013-12-30 10:12:00,
2013-12-30 05:17:00,45.9,44.4,30.04,WSW,241,0.0,3.0,95,0.00,,,0.00,0.0,meteohub,2013-12-30 10:17:00,
2013-12-30 05:22:00,45.9,44.4,30.04,WSW,241,0.0,0.0,95,0.00,,,0.00,0.0,meteohub,2013-12-30 10:22:00,
2013-12-30 05:27:00,45.9,44.4,30.04,WSW,241,0.0,2.0,95,0.00,,,0.00,0.0,meteohub,2013-12-30 10:27:00,
2013-12-30 05:32:00,45.7,44.0,30.03,WSW,241,0.0,-999.0,95,-99.99,,,0.00,0,weatherlink.com 1.10,2013-12-30 10:32:00,
2013-12-30 05:37:00,45.7,44.4,30.05,WSW,241,0.0,2.0,95,0.00,,,0.00,0.0,meteohub,2013-12-30 10:37:00,
2013-12-30 05:42:00,45.3,44.1,30.05,WSW,254,0.0,4.0,95,0.00,,,0.00,0.0,meteohub,2013-12-30 10:42:00,
2013-12-30 05:47:00,45.3,44.1,30.05,WSW,255,0.0,4.0,95,0.00,,,0.00,0.0,meteohub,2013-12-30 10:47:00,
2013-12-30 05:52:00,45.5,44.2,30.05,WSW,256,0.0,4.0,95,0.00,,,0.00,0.0,meteohub,2013-12-30 10:52:00,
2013-12-30 05:57:00,45.5,44.2,30.05,WSW,256,0.0,3.0,95,0.00,,,0.00,0.0,meteohub,2013-12-30 10:57:00,
2013-12-30 06:02:00,45.3,44.1,30.05,WSW,256,0.0,3.0,95,0.00,,,0.00,0.0,meteohub,2013-12-30 11:02:00,
2013-12-30 06:07:00,45.1,43.9,30.05,WSW,256,0.0,3.0,95,0.00,,,0.00,0.0,meteohub,2013-12-30 11:07:00,
2013-12-30 06:12:00,45.1,43.9,30.05,WSW,257,0.0,2.0,95,0.00,,,0.00,0.0,meteohub,2013-12-30 11:12:00,
2013-12-30 06:17:00,45.0,43.7,30.05,WSW,257,0.0,3.0,95,0.00,,,0.00,0.0,meteohub,2013-12-30 11:17:00,
2013-12-30 06:22:00,45.0,43.7,30.05,West,274,0.0,3.0,95,0.00,,,0.00,0.0,meteohub,2013-12-30 11:22:00,
2013-12-30 06:27:00,45.0,43.7,30.05,West,275,2.0,3.0,95,0.00,,,0.00,0.0,meteohub,2013-12-30 11:27:00,
2013-12-30 06:32:00,45.0,43.7,30.06,West,276,1.0,4.0,95,0.00,,,0.00,0.0,meteohub,2013-12-30 11:32:00,
2013-12-30 06:37:00,45.0,43.7,30.06,WNW,286,0.0,4.0,95,0.00,,,0.00,0.0,meteohub,2013-12-30 11:37:00,
2013-12-30 06:42:00,45.0,43.7,30.06,WNW,296,0.0,4.0,95,0.00,,,0.00,0.0,meteohub,2013-12-30 11:42:00,
2013-12-30 06:47:00,44.8,43.5,30.07,WNW,296,0.0,4.0,95,0.00,,,0.00,0.0,meteohub,2013-12-30 11:47:00,
2013-12-30 06:52:00,44.8,43.5,30.07,West,277,1.0,4.0,95,0.00,,,0.00,0.0,meteohub,2013-12-30 11:52:00,
2013-12-30 06:57:00,45.0,43.7,30.07,West,278,0.0,3.0,95,0.00,,,0.00,0.0,meteohub,2013-12-30 11:57:00,
2013-12-30 07:02:00,45.0,43.7,30.07,NW,306,2.0,3.0,95,0.00,,,0.00,0.0,meteohub,2013-12-30 12:02:00,
2013-12-30 07:07:00,44.8,43.5,30.08,West,281,0.0,4.0,95,0.00,,,0.00,0.0,meteohub,2013-12-30 12:07:00,
2013-12-30 07:12:00,44.8,43.5,30.08,WNW,285,0.0,4.0,95,0.00,,,0.00,0.0,meteohub,2013-12-30 12:12:00,
2013-12-30 07:17:00,44.7,43.0,30.06,WNW,284,0.0,-999.0,95,-99.99,,,0.00,0,weatherlink.com 1.10,2013-12-30 12:17:00,
2013-12-30 07:22:00,44.8,43.5,30.08,WNW,284,0.0,3.0,95,0.00,,,0.00,5.0,meteohub,2013-12-30 12:22:00,
2013-12-30 07:27:00,44.8,43.5,30.09,WNW,285,0.0,3.0,95,0.00,,,0.00,7.0,meteohub,2013-12-30 12:27:00,
2013-12-30 07:32:00,44.6,43.3,30.09,WNW,285,0.0,2.0,95,0.00,,,0.00,12.0,meteohub,2013-12-30 12:32:00,
2013-12-30 07:37:00,44.6,43.3,30.09,WNW,286,0.0,1.0,95,0.00,,,0.00,18.0,meteohub,2013-12-30 12:37:00,
2013-12-30 07:42:00,44.4,43.2,30.09,WNW,286,1.0,2.0,95,0.00,,,0.00,21.0,meteohub,2013-12-30 12:42:00,
2013-12-30 07:47:00,44.5,43.0,30.07,WNW,286,0.0,-999.0,95,-99.99,,,0.00,25,weatherlink.com 1.10,2013-12-30 12:47:00,
2013-12-30 07:52:00,44.4,43.2,30.09,West,273,2.0,2.0,95,0.00,,,0.00,26.0,meteohub,2013-12-30 12:52:00,
2013-12-30 07:57:00,44.8,43.5,30.09,West,281,0.0,2.0,95,0.00,,,0.00,28.0,meteohub,2013-12-30 12:57:00,
2013-12-30 08:02:00,44.8,43.5,30.10,West,281,0.0,4.0,95,0.00,,,0.00,26.0,meteohub,2013-12-30 13:02:00,
2013-12-30 08:07:00,44.8,43.5,30.10,West,281,0.0,4.0,95,0.00,,,0.00,30.0,meteohub,2013-12-30 13:07:00,
2013-12-30 08:12:00,45.0,43.7,30.10,West,281,0.0,3.0,95,0.00,,,0.00,35.0,meteohub,2013-12-30 13:12:00,
2013-12-30 08:17:00,45.1,43.9,30.11,West,281,0.0,2.0,95,0.00,,,0.00,79.0,meteohub,2013-12-30 13:17:00,
2013-12-30 08:22:00,45.3,44.1,30.11,West,280,0.0,2.0,95,0.00,,,0.00,84.0,meteohub,2013-12-30 13:22:00,
2013-12-30 08:27:00,45.7,44.4,30.11,WNW,282,0.0,2.0,95,0.00,,,0.00,121.0,meteohub,2013-12-30 13:27:00,
2013-12-30 08:32:00,45.9,44.2,30.12,WNW,283,0.0,3.0,94,0.00,,,0.00,151.0,meteohub,2013-12-30 13:32:00,
2013-12-30 08:37:00,46.2,44.6,30.12,West,276,0.0,3.0,94,0.00,,,0.00,156.0,meteohub,2013-12-30 13:37:00,
2013-12-30 08:42:00,46.6,45.0,30.12,West,270,4.0,4.0,94,0.00,,,0.00,179.0,meteohub,2013-12-30 13:42:00,
2013-12-30 08:47:00,46.9,45.0,30.12,West,279,1.0,5.0,93,0.00,,,0.00,199.0,meteohub,2013-12-30 13:47:00,
2013-12-30 08:52:00,47.1,45.1,30.13,WNW,296,1.0,5.0,93,0.00,,,0.00,209.0,meteohub,2013-12-30 13:52:00,
2013-12-30 08:57:00,47.5,45.3,30.12,WNW,302,0.0,4.0,92,0.00,,,0.00,225.0,meteohub,2013-12-30 13:57:00,
2013-12-30 09:02:00,47.7,45.1,30.12,NW,323,0.0,7.0,91,0.00,,,0.00,262.0,meteohub,2013-12-30 14:02:00,
2013-12-30 09:07:00,48.0,45.5,30.12,NW,321,3.0,7.0,91,0.00,,,0.00,278.0,meteohub,2013-12-30 14:07:00,
2013-12-30 09:12:00,48.4,45.5,30.13,NW,304,0.0,7.0,90,0.00,,,0.00,281.0,meteohub,2013-12-30 14:12:00,
2013-12-30 09:17:00,48.7,45.7,30.13,WNW,290,0.0,9.0,89,0.00,,,0.00,214.0,meteohub,2013-12-30 14:17:00,
2013-12-30 09:22:00,48.9,45.5,30.13,WNW,287,0.0,9.0,88,0.00,,,0.00,98.0,meteohub,2013-12-30 14:22:00,
2013-12-30 09:27:00,49.1,45.3,30.13,NW,314,1.0,6.0,87,0.00,,,0.00,334.0,meteohub,2013-12-30 14:27:00,
2013-12-30 09:32:00,49.6,45.9,30.14,WNW,292,4.0,6.0,87,0.00,,,0.00,359.0,meteohub,2013-12-30 14:32:00,
2013-12-30 09:37:00,49.8,45.5,30.14,WNW,287,4.0,6.0,85,0.00,,,0.00,367.0,meteohub,2013-12-30 14:37:00,
2013-12-30 09:42:00,50.2,45.9,30.14,NNW,327,3.0,10.0,85,0.00,,,0.00,381.0,meteohub,2013-12-30 14:42:00,
2013-12-30 09:47:00,50.5,45.9,30.14,WNW,288,0.0,10.0,84,0.00,,,0.00,401.0,meteohub,2013-12-30 14:47:00,
2013-12-30 09:52:00,51.1,46.4,30.14,NW,311,5.0,10.0,84,0.00,,,0.00,397.0,meteohub,2013-12-30 14:52:00,
2013-12-30 09:57:00,51.3,46.0,30.14,NW,304,3.0,6.0,82,0.00,,,0.00,411.0,meteohub,2013-12-30 14:57:00,
2013-12-30 10:02:00,51.6,46.2,30.14,WNW,298,3.0,7.0,82,0.00,,,0.00,422.0,meteohub,2013-12-30 15:02:00,
2013-12-30 10:07:00,52.2,46.6,30.15,WNW,298,4.0,8.0,81,0.00,,,0.00,429.0,meteohub,2013-12-30 15:07:00,
2013-12-30 10:12:00,52.5,46.6,30.15,WNW,287,0.0,8.0,80,0.00,,,0.00,450.0,meteohub,2013-12-30 15:12:00,
2013-12-30 10:17:00,53.1,47.1,30.15,West,276,1.0,8.0,80,0.00,,,0.00,466.0,meteohub,2013-12-30 15:17:00,
2013-12-30 10:22:00,53.4,47.1,30.15,WNW,283,0.0,6.0,79,0.00,,,0.00,471.0,meteohub,2013-12-30 15:22:00,
2013-12-30 10:27:00,53.8,46.8,30.15,West,275,0.0,5.0,77,0.00,,,0.00,466.0,meteohub,2013-12-30 15:27:00,
2013-12-30 10:32:00,54.3,47.7,30.15,West,281,3.0,5.0,78,0.00,,,0.00,476.0,meteohub,2013-12-30 15:32:00,
2013-12-30 10:37:00,54.5,47.1,30.15,WNW,285,0.0,5.0,76,0.00,,,0.00,508.0,meteohub,2013-12-30 15:37:00,
2013-12-30 10:42:00,54.7,46.9,30.15,West,279,0.0,6.0,75,0.00,,,0.00,559.0,meteohub,2013-12-30 15:42:00,
2013-12-30 10:47:00,55.0,46.9,30.14,West,281,3.0,8.0,74,0.00,,,0.00,635.0,meteohub,2013-12-30 15:47:00,
2013-12-30 10:52:00,55.8,47.7,30.14,NNW,339,0.0,8.0,74,0.00,,,0.00,650.0,meteohub,2013-12-30 15:52:00,
2013-12-30 10:57:00,56.1,47.3,30.14,WNW,300,0.0,8.0,72,0.00,,,0.00,285.0,meteohub,2013-12-30 15:57:00,
2013-12-30 11:02:00,56.1,47.3,30.14,WNW,295,2.0,7.0,72,0.00,,,0.00,425.0,meteohub,2013-12-30 16:02:00,
2013-12-30 11:07:00,56.1,47.3,30.14,WNW,296,6.0,7.0,72,0.00,,,0.00,640.0,meteohub,2013-12-30 16:07:00,
2013-12-30 11:12:00,56.5,48.4,30.14,WNW,288,2.0,8.0,74,0.00,,,0.00,598.0,meteohub,2013-12-30 16:12:00,
2013-12-30 11:17:00,56.8,47.5,30.14,NNE,17,2.0,8.0,71,0.00,,,0.00,520.0,meteohub,2013-12-30 16:17:00,
2013-12-30 11:22:00,57.2,47.8,30.14,WNW,291,0.0,8.0,71,0.00,,,0.00,594.0,meteohub,2013-12-30 16:22:00,
2013-12-30 11:27:00,57.6,47.8,30.14,West,281,2.0,7.0,70,0.00,,,0.00,527.0,meteohub,2013-12-30 16:27:00,
2013-12-30 11:32:00,57.7,48.4,30.14,NNW,327,5.0,7.0,71,0.00,,,0.00,529.0,meteohub,2013-12-30 16:32:00,
2013-12-30 11:37:00,57.9,47.5,30.14,West,281,4.0,6.0,68,0.00,,,0.00,260.0,meteohub,2013-12-30 16:37:00,
2013-12-30 11:42:00,57.7,47.7,30.14,WNW,287,1.0,6.0,69,0.00,,,0.00,380.0,meteohub,2013-12-30 16:42:00,
2013-12-30 11:47:00,57.7,47.7,30.13,WNW,288,0.0,7.0,69,0.00,,,0.00,694.0,meteohub,2013-12-30 16:47:00,
2013-12-30 11:52:00,58.1,48.0,30.13,NW,313,0.0,7.0,69,0.00,,,0.00,176.0,meteohub,2013-12-30 16:52:00,
2013-12-30 11:57:00,58.3,47.3,30.14,WNW,300,2.0,8.0,67,0.00,,,0.00,617.0,meteohub,2013-12-30 16:57:00,
2013-12-30 12:02:00,58.5,48.0,30.13,WNW,286,1.0,9.0,68,0.00,,,0.00,462.0,meteohub,2013-12-30 17:02:00,
2013-12-30 12:07:00,58.6,48.2,30.13,NW,309,0.0,9.0,68,0.00,,,0.00,643.0,meteohub,2013-12-30 17:07:00,
2013-12-30 12:12:00,59.0,47.7,30.13,WSW,242,4.0,9.0,66,0.00,,,0.00,643.0,meteohub,2013-12-30 17:12:00,
2013-12-30 12:17:00,59.0,47.7,30.12,West,274,0.0,6.0,66,0.00,,,0.00,650.0,meteohub,2013-12-30 17:17:00,
2013-12-30 12:22:00,59.0,48.0,30.12,SSW,213,0.0,6.0,67,0.00,,,0.00,526.0,meteohub,2013-12-30 17:22:00,
2013-12-30 12:27:00,59.4,48.7,30.11,WNW,287,4.0,6.0,68,0.00,,,0.00,733.0,meteohub,2013-12-30 17:27:00,
2013-12-30 12:32:00,59.7,48.4,30.12,WNW,294,0.0,6.0,66,0.00,,,0.00,471.0,meteohub,2013-12-30 17:32:00,
2013-12-30 12:37:00,60.1,48.7,30.12,NNW,338,3.0,6.0,66,0.00,,,0.00,487.0,meteohub,2013-12-30 17:37:00,
2013-12-30 12:42:00,60.4,48.6,30.12,WNW,296,0.0,8.0,65,0.00,,,0.00,577.0,meteohub,2013-12-30 17:42:00,
2013-12-30 12:47:00,61.0,48.4,30.11,West,277,2.0,8.0,63,0.00,,,0.00,304.0,meteohub,2013-12-30 17:47:00,
2013-12-30 12:52:00,60.8,48.6,30.11,WNW,283,2.0,5.0,64,0.00,,,0.00,278.0,meteohub,2013-12-30 17:52:00,
2013-12-30 12:57:00,60.6,48.7,30.10,WSW,244,0.0,5.0,65,0.00,,,0.00,258.0,meteohub,2013-12-30 17:57:00,
2013-12-30 13:02:00,60.6,48.7,30.10,SW,227,0.0,5.0,65,0.00,,,0.00,264.0,meteohub,2013-12-30 18:02:00,
2013-12-30 13:07:00,60.6,48.0,30.10,NW,313,1.0,4.0,63,0.00,,,0.00,329.0,meteohub,2013-12-30 18:07:00,
2013-12-30 13:12:00,60.4,48.2,30.10,NW,308,0.0,5.0,64,0.00,,,0.00,241.0,meteohub,2013-12-30 18:12:00,
2013-12-30 13:17:00,60.4,48.6,30.10,SW,223,0.0,5.0,65,0.00,,,0.00,343.0,meteohub,2013-12-30 18:17:00,
2013-12-30 13:22:00,60.6,48.4,30.10,WNW,287,0.0,5.0,64,0.00,,,0.00,360.0,meteohub,2013-12-30 18:22:00,
2013-12-30 13:27:00,61.2,49.6,30.10,West,278,0.0,5.0,66,0.00,,,0.00,520.0,meteohub,2013-12-30 18:27:00,
2013-12-30 13:32:00,61.5,48.4,30.10,WNW,298,0.0,5.0,62,0.00,,,0.00,606.0,meteohub,2013-12-30 18:32:00,
2013-12-30 13:37:00,62.2,49.1,30.10,WNW,291,0.0,7.0,62,0.00,,,0.00,701.0,meteohub,2013-12-30 18:37:00,
2013-12-30 13:42:00,63.0,48.9,30.10,SSW,199,0.0,7.0,60,0.00,,,0.00,353.0,meteohub,2013-12-30 18:42:00,
2013-12-30 13:47:00,63.0,49.3,30.10,NW,304,0.0,8.0,61,0.00,,,0.00,401.0,meteohub,2013-12-30 18:47:00,
2013-12-30 13:52:00,63.1,49.5,30.09,WNW,296,4.0,8.0,61,0.00,,,0.00,318.0,meteohub,2013-12-30 18:52:00,
2013-12-30 13:57:00,63.0,48.9,30.10,WNW,291,4.0,8.0,60,0.00,,,0.00,304.0,meteohub,2013-12-30 18:57:00,
2013-12-30 14:02:00,62.8,48.7,30.10,West,273,0.0,8.0,60,0.00,,,0.00,276.0,meteohub,2013-12-30 19:02:00,
2013-12-30 14:07:00,62.8,48.2,30.09,WNW,284,0.0,7.0,59,0.00,,,0.00,283.0,meteohub,2013-12-30 19:07:00,
2013-12-30 14:12:00,62.8,48.2,30.09,NW,305,0.0,7.0,59,0.00,,,0.00,285.0,meteohub,2013-12-30 19:12:00,
2013-12-30 14:17:00,62.8,48.2,30.09,WNW,286,2.0,6.0,59,0.00,,,0.00,255.0,meteohub,2013-12-30 19:17:00,
2013-12-30 14:22:00,62.8,47.8,30.09,WNW,282,4.0,6.0,58,0.00,,,0.00,239.0,meteohub,2013-12-30 19:22:00,
2013-12-30 14:27:00,62.6,48.0,30.10,WNW,288,1.0,7.0,59,0.00,,,0.00,207.0,meteohub,2013-12-30 19:27:00,
2013-12-30 14:32:00,62.2,47.7,30.09,NW,322,5.0,7.0,59,0.00,,,0.00,209.0,meteohub,2013-12-30 19:32:00,
2013-12-30 14:37:00,62.1,48.0,30.10,WNW,284,0.0,8.0,60,0.00,,,0.00,202.0,meteohub,2013-12-30 19:37:00,
2013-12-30 14:42:00,62.1,48.0,30.10,WNW,283,0.0,8.0,60,0.00,,,0.00,185.0,meteohub,2013-12-30 19:42:00,
2013-12-30 14:47:00,62.1,47.5,30.10,WNW,288,0.0,7.0,59,0.00,,,0.00,183.0,meteohub,2013-12-30 19:47:00,
2013-12-30 14:52:00,61.9,48.2,30.10,NW,306,3.0,7.0,61,0.00,,,0.00,165.0,meteohub,2013-12-30 19:52:00,
2013-12-30 14:57:00,61.9,47.8,30.10,West,281,0.0,6.0,60,0.00,,,0.00,176.0,meteohub,2013-12-30 19:57:00,
2013-12-30 15:02:00,61.9,48.7,30.10,WNW,288,0.0,6.0,62,0.00,,,0.00,183.0,meteohub,2013-12-30 20:02:00,
2013-12-30 15:07:00,61.7,48.6,30.10,West,281,0.0,6.0,62,0.00,,,0.00,186.0,meteohub,2013-12-30 20:07:00,
2013-12-30 15:12:00,61.7,48.9,30.10,West,280,3.0,6.0,63,0.00,,,0.00,174.0,meteohub,2013-12-30 20:12:00,
2013-12-30 15:17:00,61.9,48.7,30.10,WNW,288,0.0,7.0,62,0.00,,,0.00,216.0,meteohub,2013-12-30 20:17:00,
2013-12-30 15:22:00,61.9,48.7,30.10,WSW,246,0.0,7.0,62,0.00,,,0.00,167.0,meteohub,2013-12-30 20:22:00,
2013-12-30 15:27:00,61.9,48.7,30.10,West,277,3.0,7.0,62,0.00,,,0.00,134.0,meteohub,2013-12-30 20:27:00,
2013-12-30 15:32:00,61.5,48.4,30.10,WNW,285,0.0,6.0,62,0.00,,,0.00,127.0,meteohub,2013-12-30 20:32:00,
2013-12-30 15:37:00,61.3,47.8,30.10,SW,236,0.0,6.0,61,0.00,,,0.00,125.0,meteohub,2013-12-30 20:37:00,
2013-12-30 15:42:00,61.3,47.8,30.11,WNW,290,1.0,6.0,61,0.00,,,0.00,169.0,meteohub,2013-12-30 20:42:00,
2013-12-30 15:47:00,61.3,48.2,30.11,WNW,284,2.0,6.0,62,0.00,,,0.00,139.0,meteohub,2013-12-30 20:47:00,
2013-12-30 15:52:00,61.2,48.0,30.11,WSW,239,0.0,7.0,62,0.00,,,0.00,120.0,meteohub,2013-12-30 20:52:00,
2013-12-30 15:57:00,61.2,48.4,30.11,WNW,290,0.0,7.0,63,0.00,,,0.00,105.0,meteohub,2013-12-30 20:57:00,
2013-12-30 16:02:00,61.0,48.4,30.10,WNW,287,0.0,6.0,63,0.00,,,0.00,100.0,meteohub,2013-12-30 21:02:00,
2013-12-30 16:07:00,60.8,48.2,30.11,WNW,288,0.0,4.0,63,0.00,,,0.00,107.0,meteohub,2013-12-30 21:07:00,
2013-12-30 16:12:00,60.6,49.3,30.11,WNW,289,0.0,4.0,66,0.00,,,0.00,113.0,meteohub,2013-12-30 21:12:00,
2013-12-30 16:17:00,60.6,48.7,30.12,NW,310,4.0,4.0,65,0.00,,,0.00,128.0,meteohub,2013-12-30 21:17:00,
2013-12-30 16:22:00,60.6,48.4,30.12,WNW,291,0.0,5.0,64,0.00,,,0.00,79.0,meteohub,2013-12-30 21:22:00,
2013-12-30 16:27:00,60.6,48.7,30.12,NW,326,0.0,5.0,65,0.00,,,0.00,69.0,meteohub,2013-12-30 21:27:00,
2013-12-30 16:32:00,60.6,48.7,30.12,NW,311,0.0,5.0,65,0.00,,,0.00,49.0,meteohub,2013-12-30 21:32:00,
2013-12-30 16:37:00,60.3,48.9,30.12,NW,307,2.0,4.0,66,0.00,,,0.00,54.0,meteohub,2013-12-30 21:37:00,
2013-12-30 16:42:00,60.1,49.1,30.12,WNW,294,0.0,3.0,67,0.00,,,0.00,54.0,meteohub,2013-12-30 21:42:00,
2013-12-30 16:47:00,59.9,49.3,30.12,WNW,294,0.0,3.0,68,0.00,,,0.00,46.0,meteohub,2013-12-30 21:47:00,
2013-12-30 16:52:00,59.7,49.1,30.12,WNW,290,1.0,2.0,68,0.00,,,0.00,37.0,meteohub,2013-12-30 21:52:00,
2013-12-30 16:57:00,59.4,49.1,30.12,WNW,290,0.0,5.0,69,0.00,,,0.00,25.0,meteohub,2013-12-30 21:57:00,
2013-12-30 17:02:00,59.2,49.1,30.12,WNW,290,0.0,5.0,69,0.00,,,0.00,19.0,meteohub,2013-12-30 22:02:00,
2013-12-30 17:07:00,59.0,49.3,30.12,WNW,290,0.0,5.0,70,0.00,,,0.00,18.0,meteohub,2013-12-30 22:07:00,
2013-12-30 17:12:00,59.0,50.0,30.12,WNW,290,0.0,2.0,72,0.00,,,0.00,12.0,meteohub,2013-12-30 22:12:00,
2013-12-30 17:17:00,58.6,50.4,30.13,WNW,290,0.0,2.0,74,0.00,,,0.00,7.0,meteohub,2013-12-30 22:17:00,
2013-12-30 17:22:00,58.5,50.2,30.13,WNW,290,0.0,0.0,74,0.00,,,0.00,0.0,meteohub,2013-12-30 22:22:00,
2013-12-30 17:27:00,58.3,50.4,30.13,WNW,290,0.0,0.0,75,0.00,,,0.00,0.0,meteohub,2013-12-30 22:27:00,
2013-12-30 17:32:00,57.9,50.0,30.13,WNW,290,0.0,0.0,75,0.00,,,0.00,0.0,meteohub,2013-12-30 22:32:00,
2013-12-30 17:37:00,57.7,50.5,30.13,WNW,290,0.0,0.0,77,0.00,,,0.00,0.0,meteohub,2013-12-30 22:37:00,
2013-12-30 17:42:00,57.4,50.2,30.12,WNW,290,0.0,0.0,77,0.00,,,0.00,0.0,meteohub,2013-12-30 22:42:00,
2013-12-30 17:47:00,57.0,50.5,30.12,WNW,290,0.0,0.0,79,0.00,,,0.00,0.0,meteohub,2013-12-30 22:47:00,
2013-12-30 17:52:00,56.7,50.5,30.13,WNW,290,0.0,0.0,80,0.00,,,0.00,0.0,meteohub,2013-12-30 22:52:00,
2013-12-30 17:57:00,56.5,51.1,30.13,WNW,290,0.0,0.0,82,0.00,,,0.00,0.0,meteohub,2013-12-30 22:57:00,
2013-12-30 18:02:00,56.1,51.1,30.14,WNW,290,0.0,0.0,83,0.00,,,0.00,0.0,meteohub,2013-12-30 23:02:00,
2013-12-30 18:07:00,55.8,50.7,30.14,WNW,290,0.0,0.0,83,0.00,,,0.00,0.0,meteohub,2013-12-30 23:07:00,
2013-12-30 18:12:00,55.6,50.9,30.14,WNW,290,0.0,0.0,84,0.00,,,0.00,0.0,meteohub,2013-12-30 23:12:00,
2013-12-30 18:17:00,55.2,50.7,30.14,WNW,290,0.0,0.0,85,0.00,,,0.00,0.0,meteohub,2013-12-30 23:17:00,
2013-12-30 18:22:00,55.0,50.5,30.14,WNW,290,0.0,0.0,85,0.00,,,0.00,0.0,meteohub,2013-12-30 23:22:00,
2013-12-30 18:27:00,54.9,50.2,30.14,WNW,290,0.0,0.0,84,0.00,,,0.00,0.0,meteohub,2013-12-30 23:27:00,
2013-12-30 18:32:00,54.9,50.4,30.14,WNW,290,0.0,1.0,85,0.00,,,0.00,0.0,meteohub,2013-12-30 23:32:00,
2013-12-30 18:37:00,54.7,50.0,30.15,WNW,290,0.0,1.0,84,0.00,,,0.00,0.0,meteohub,2013-12-30 23:37:00,
2013-12-30 18:42:00,54.7,50.0,30.15,WNW,290,0.0,1.0,84,0.00,,,0.00,0.0,meteohub,2013-12-30 23:42:00,
2013-12-30 18:47:00,54.7,50.2,30.15,WNW,290,0.0,0.0,85,0.00,,,0.00,0.0,meteohub,2013-12-30 23:47:00,
2013-12-30 18:52:00,54.5,49.8,30.15,WNW,290,0.0,0.0,84,0.00,,,0.00,0.0,meteohub,2013-12-30 23:52:00,
2013-12-30 18:57:00,54.3,49.8,30.15,WNW,290,0.0,0.0,85,0.00,,,0.00,0.0,meteohub,2013-12-30 23:57:00,
2013-12-30 19:02:00,54.3,49.8,30.16,WNW,290,0.0,0.0,85,0.00,,,0.00,0.0,meteohub,2013-12-31 00:02:00,
2013-12-30 19:07:00,54.1,49.8,30.15,WNW,290,0.0,0.0,85,0.00,,,0.00,0.0,meteohub,2013-12-31 00:07:00,
2013-12-30 19:12:00,54.1,49.8,30.15,WNW,290,0.0,0.0,85,0.00,,,0.00,0.0,meteohub,2013-12-31 00:12:00,
2013-12-30 19:17:00,54.1,50.4,30.15,WNW,290,0.0,0.0,87,0.00,,,0.00,0.0,meteohub,2013-12-31 00:17:00,
2013-12-30 19:22:00,54.0,50.2,30.15,WNW,290,0.0,0.0,87,0.00,,,0.00,0.0,meteohub,2013-12-31 00:22:00,
2013-12-30 19:27:00,54.0,50.5,30.16,WNW,290,0.0,0.0,88,0.00,,,0.00,0.0,meteohub,2013-12-31 00:27:00,
2013-12-30 19:32:00,53.8,50.4,30.16,WNW,290,0.0,0.0,88,0.00,,,0.00,0.0,meteohub,2013-12-31 00:32:00,
2013-12-30 19:37:00,53.6,50.2,30.16,WNW,290,0.0,0.0,88,0.00,,,0.00,0.0,meteohub,2013-12-31 00:37:00,
2013-12-30 19:42:00,53.4,50.0,30.17,WNW,290,0.0,0.0,88,0.00,,,0.00,0.0,meteohub,2013-12-31 00:42:00,
2013-12-30 19:47:00,53.4,50.0,30.17,WNW,290,0.0,0.0,88,0.00,,,0.00,0.0,meteohub,2013-12-31 00:47:00,
2013-12-30 19:52:00,53.4,50.0,30.17,WNW,290,0.0,2.0,88,0.00,,,0.00,0.0,meteohub,2013-12-31 00:52:00,
2013-12-30 19:57:00,53.4,49.6,30.17,WNW,290,0.0,2.0,87,0.00,,,0.00,0.0,meteohub,2013-12-31 00:57:00,
2013-12-30 20:02:00,53.4,49.1,30.16,WNW,290,0.0,0.0,85,0.00,,,0.00,0.0,meteohub,2013-12-31 01:02:00,
2013-12-30 20:07:00,53.8,50.0,30.17,WNW,290,0.0,0.0,87,0.00,,,0.00,0.0,meteohub,2013-12-31 01:07:00,
2013-12-30 20:12:00,53.4,49.3,30.17,WNW,290,0.0,0.0,86,0.00,,,0.00,0.0,meteohub,2013-12-31 01:12:00,
2013-12-30 20:17:00,53.4,49.3,30.17,WNW,290,0.0,0.0,86,0.00,,,0.00,0.0,meteohub,2013-12-31 01:17:00,
2013-12-30 20:22:00,53.4,49.1,30.15,WNW,290,0.0,0.0,85,0.00,,,0.00,0.0,meteohub,2013-12-31 01:22:00,
2013-12-30 20:27:00,53.6,48.9,30.15,WNW,290,0.0,0.0,84,0.00,,,0.00,0.0,meteohub,2013-12-31 01:27:00,
2013-12-30 20:32:00,53.8,49.1,30.14,WNW,290,0.0,0.0,84,0.00,,,0.00,0.0,meteohub,2013-12-31 01:32:00,
2013-12-30 20:37:00,53.8,49.5,30.14,WNW,290,0.0,0.0,85,0.00,,,0.00,0.0,meteohub,2013-12-31 01:37:00,
2013-12-30 20:42:00,53.8,49.5,30.14,WNW,290,0.0,0.0,85,0.00,,,0.00,0.0,meteohub,2013-12-31 01:42:00,
2013-12-30 20:47:00,53.6,49.8,30.14,WNW,290,0.0,0.0,87,0.00,,,0.00,0.0,meteohub,2013-12-31 01:47:00,
2013-12-30 20:52:00,53.4,49.6,30.14,WNW,290,0.0,0.0,87,0.00,,,0.00,0.0,meteohub,2013-12-31 01:52:00,
2013-12-30 20:57:00,53.2,49.5,30.14,WNW,290,0.0,0.0,87,0.00,,,0.00,0.0,meteohub,2013-12-31 01:57:00,
2013-12-30 21:02:00,53.2,49.8,30.16,WNW,290,0.0,0.0,88,0.00,,,0.00,0.0,meteohub,2013-12-31 02:02:00,
2013-12-30 21:07:00,53.1,49.6,30.17,WNW,290,0.0,0.0,88,0.00,,,0.00,0.0,meteohub,2013-12-31 02:07:00,
2013-12-30 21:12:00,53.1,49.6,30.17,WNW,290,0.0,0.0,88,0.00,,,0.00,0.0,meteohub,2013-12-31 02:12:00,
2013-12-30 21:17:00,53.1,49.6,30.17,WNW,290,0.0,0.0,88,0.00,,,0.00,0.0,meteohub,2013-12-31 02:17:00,
2013-12-30 21:22:00,53.1,49.8,30.16,WNW,290,0.0,0.0,89,0.00,,,0.00,0.0,meteohub,2013-12-31 02:22:00,
2013-12-30 21:27:00,53.1,49.6,30.17,WNW,290,0.0,0.0,88,0.00,,,0.00,0.0,meteohub,2013-12-31 02:27:00,
2013-12-30 21:32:00,53.1,49.6,30.19,WNW,290,0.0,2.0,88,0.00,,,0.00,0.0,meteohub,2013-12-31 02:32:00,
2013-12-30 21:37:00,53.1,49.3,30.18,WNW,290,0.0,2.0,87,0.00,,,0.00,0.0,meteohub,2013-12-31 02:37:00,
2013-12-30 21:42:00,53.2,49.1,30.18,WNW,290,0.0,2.0,86,0.00,,,0.00,0.0,meteohub,2013-12-31 02:42:00,
2013-12-30 21:47:00,53.2,48.9,30.18,WNW,290,0.0,1.0,85,0.00,,,0.00,0.0,meteohub,2013-12-31 02:47:00,
2013-12-30 21:52:00,53.4,49.1,30.17,WNW,290,0.0,1.0,85,0.00,,,0.00,0.0,meteohub,2013-12-31 02:52:00,
2013-12-30 21:57:00,53.4,49.3,30.17,WNW,290,0.0,0.0,86,0.00,,,0.00,0.0,meteohub,2013-12-31 02:57:00,
2013-12-30 22:02:00,53.6,49.5,30.18,WNW,290,0.0,0.0,86,0.00,,,0.00,0.0,meteohub,2013-12-31 03:02:00,
2013-12-30 22:07:00,53.6,49.5,30.18,WNW,290,0.0,0.0,86,0.00,,,0.00,0.0,meteohub,2013-12-31 03:07:00,
2013-12-30 22:12:00,53.4,49.6,30.18,WNW,290,0.0,0.0,87,0.00,,,0.00,0.0,meteohub,2013-12-31 03:12:00,
2013-12-30 22:17:00,53.4,49.6,30.18,WNW,290,0.0,0.0,87,0.00,,,0.00,0.0,meteohub,2013-12-31 03:17:00,
2013-12-30 22:22:00,53.2,49.1,30.18,WNW,290,0.0,0.0,86,0.00,,,0.00,0.0,meteohub,2013-12-31 03:22:00,
2013-12-30 22:27:00,53.2,49.1,30.18,WNW,290,0.0,0.0,86,0.00,,,0.00,0.0,meteohub,2013-12-31 03:27:00,
2013-12-30 22:32:00,53.2,49.1,30.19,WNW,290,0.0,0.0,86,0.00,,,0.00,0.0,meteohub,2013-12-31 03:32:00,
2013-12-30 22:37:00,53.2,48.9,30.19,WNW,290,0.0,0.0,85,0.00,,,0.00,0.0,meteohub,2013-12-31 03:37:00,
2013-12-30 22:42:00,53.2,49.1,30.18,WNW,290,0.0,0.0,86,0.00,,,0.00,0.0,meteohub,2013-12-31 03:42:00,
2013-12-30 22:47:00,53.4,49.3,30.19,WNW,290,0.0,0.0,86,0.00,,,0.00,0.0,meteohub,2013-12-31 03:47:00,
2013-12-30 22:52:00,53.2,49.1,30.19,WNW,290,0.0,0.0,86,0.00,,,0.00,0.0,meteohub,2013-12-31 03:52:00,
2013-12-30 22:57:00,53.2,48.9,30.19,WNW,290,0.0,0.0,85,0.00,,,0.00,0.0,meteohub,2013-12-31 03:57:00,
2013-12-30 23:02:00,53.2,48.9,30.19,WNW,290,0.0,0.0,85,0.00,,,0.00,0.0,meteohub,2013-12-31 04:02:00,
2013-12-30 23:07:00,53.2,48.9,30.18,WNW,290,0.0,0.0,85,0.00,,,0.00,0.0,meteohub,2013-12-31 04:07:00,
2013-12-30 23:12:00,53.2,49.1,30.18,WNW,290,0.0,0.0,86,0.00,,,0.00,0.0,meteohub,2013-12-31 04:12:00,
2013-12-30 23:17:00,53.4,49.3,30.17,WNW,290,0.0,0.0,86,0.00,,,0.00,0.0,meteohub,2013-12-31 04:17:00,
2013-12-30 23:22:00,53.4,49.1,30.17,WNW,290,0.0,0.0,85,0.00,,,0.00,0.0,meteohub,2013-12-31 04:22:00,
2013-12-30 23:27:00,53.6,49.8,30.18,WNW,290,0.0,0.0,87,0.00,,,0.00,0.0,meteohub,2013-12-31 04:27:00,
2013-12-30 23:32:00,53.4,49.6,30.19,WNW,290,0.0,0.0,87,0.00,,,0.00,0.0,meteohub,2013-12-31 04:32:00,
2013-12-30 23:37:00,53.4,49.3,30.18,WNW,290,0.0,1.0,86,0.00,,,0.00,0.0,meteohub,2013-12-31 04:37:00,
2013-12-30 23:42:00,53.4,49.3,30.18,WNW,290,0.0,2.0,86,0.00,,,0.00,0.0,meteohub,2013-12-31 04:42:00,
2013-12-30 23:44:00,53.4,49.3,30.17,WNW,290,0.0,2.0,86,0.00,,,0.00,0.0,meteohub,2013-12-31 04:44:00,
2013-12-30 23:49:00,53.4,49.1,30.17,WNW,290,0.0,2.0,85,0.00,,,0.00,0.0,meteohub,2013-12-31 04:49:00,
2013-12-30 23:54:00,53.4,49.3,30.18,WNW,290,0.0,2.0,86,0.00,,,0.00,0.0,meteohub,2013-12-31 04:54:00,
2013-12-30 23:59:00,53.2,48.9,30.18,WNW,290,0.0,1.0,85,0.00,,,0.00,0.0,meteohub,2013-12-31 04:59:00,